STARLINK-2738, 48668

Orbit data source: Space-Track

STARLINK-2738, 48668 is a payload satellite owned by SpaceX/Seattle (US) in LEO that was launched on Wed, 26 May 2021 UTC via an FALCON 9 launch vehicle from the Air Force Eastern Test Range (AFETR). Payload-class satellites include a variety of spacecraft equipped with specific instruments for various scientific and technological missions. These include communications satellites like Starlink; space stations such as the ISS; scientific satellites like the Hubble; Earth observation satellites from companies like Planet Labs, Umbra, and HawkEye 360; GPS; miniature CubeSats for education and research; and military/defense satellites.

Loading next visibility...
Identifier
48668, 2021-044AG
Orbit
LEO
Country
Flag of USUS
Related business
Manufacturer
SpaceX/Seattle
Mission
Operational Commercial Communications
Bus & Motor
STARLINK, Unknown motor
Mass
260 kg wet, ~248 kg dry
Launch date (UTC)
2021-05-26 (5 years ago)
Launch vehicle
FALCON 9
Launch site
Air Force Eastern Test Range (AFETR)
Object type
Payload
Rocket body
Debris
Shape & HBR
Box + 1 Pan, 10.1 m
Radar Cross Section
13.562 m², Large (>1 m²)

Expand to show TLE details & history
Last TLE update: 3 days ago

TLE from 3 days ago
0 STARLINK-2738
1 48668U 21044AG  26170.86887167  .00000798  00000-0  37472-4 0  9991
2 48668  53.1624 348.5888 0001147  94.0539 266.0594 15.31702727279625
Epoch: 2026-06-19T20:51Z
TLE epoch observation values (Epoch: 2026-06-19T20:51:10.512Z)
Latitude
0.00002°
Longitude
127.70335°
Altitude
471.686 km
Speed
7.631 km/s
True Right ascension
23h 14m 21s
True Declination
0° 00' 00"
Sunlit
Object was in daylight at epoch
Visualization orbit readout
Latitude
Unknown
Longitude
Unknown
Altitude
Unknown
Speed
Unknown
Apparent Right ascension
Unknown
Apparent Declination
Unknown
Sunlit
N/A
Visualization observer readout
Local Sidereal Time
21:38:28
Azimuth
Unknown
Elevation
Unknown
Doppler factor
Unknown
Orbital elements
Apogee altitude
471.774 km
Perigee altitude
470.202 km
Semi-major axis
6,849.125 km
Eccentricity
0.00011
Inclination
53.1624°
RAAN
348.5888°
Arg. of periapsis
94.0539°
True anomaly
266.04629°
Mean anomaly
266.0594°
Eccentric anomaly
266.05284°
Mean motion
3.82905 °/min
Orbital period
94.02 mins
BSTAR
0.000037472
Loading maneuver chart data...
Computing Atmospheric mass density...

Documentation

Showing up to 5 results
|